Weather in Sestri Levante

Italy     44°16′25″N   9°23′46″E
temp.,
°C
wind,
m/s
gust,
m/s
humid.,
%
clouds,
%
prec.,
mm/h
press.,
hPa
HPBL,
m
10 may, mon
mon1023:00+14ene3372100 0.0 101846
02:00+13ene3271100 0.0 101730
05:00+13ne32775 0.0 101627
08:00+16ene127078 0.0 101787
11:00+20s355079 0.0 10161006
14:00+20se475699 0.0 10161032
17:00+19ese4855100 0.0 1015798
20:00+16e4774100 0.0 1015405
11 may, tue
tue1123:00+14e347898 0.0 101563
02:00+14ene337579 0.0 101442
05:00+14ne2274100 0.1 101222
08:00+13e3596100 4.3 1012242
11:00+13ese1396100 4.1 1011181
14:00+13wsw2398100 8.6 1011278
17:00+12wsw1197100 3.6 1011147
20:00+12sse0194100 4.3 101054
12 may, wed
wed1223:00+11ene2393100 0.1 100986
02:00+11e2293100 0.4 1008116
05:00+11ne2292100 0.4 100752
08:00+13w118726 0.4 1007155
11:00+15sw117831 0.2 1008527
14:00+14sw338757 1.9 1008601
17:00+13s338895 1.1 1008528
20:00+12ese3490100 1.2 1008275
13 may, thu
thu1323:00+12se3585100 0.1 1009312
02:00+12sse358697 0.2 1007327
05:00+11ne359325 0.3 1005224
08:00+12ne348669 0.3 1005173
11:00+16ese346713 0.1 1005972
14:00+16ese336930 0.9 1005984
17:00+13s349092 1.5 1005527
20:00+12se349172 1.9 1006333
14 may, fri
fri1423:00+11e359383 0.1 1007268
02:00+11se239499 0.4 1007155
05:00+11s4792100 2.4 1007479
08:00+11ssw4891100 6.2 1008603
11:00+11s4592100 3.3 1010536
14:00+11e3490100 5.1 1010336
17:00+10ne2393100 4.3 1009166
20:00+10ene2395100 10.1 1008131